{"data":{"norad_id":64718,"epoch":"2026-09-20T05:05:23.036352Z","epoch_age_seconds":152799,"freshness":"FRESH","line1":"1 64718U 25142Y   26263.21207218  .00010249  00000+0  36032-3 0  9994","line2":"2 64718  70.0015 181.7923 0002858 272.5328  87.5519 15.29594123 68846","mean_motion":15.29594123,"eccentricity":0.0002858,"inclination_deg":70.0015,"raan_deg":181.7923,"arg_perigee_deg":272.5328,"mean_anomaly_deg":87.5519,"bstar":0.00036032,"rev_number":6884,"period_min":94.142621127213,"perigee_km":475.06550082789,"apogee_km":478.98391125907,"semimajor_km":6855.1617060435,"source":"CELESTRAK","updated_at":"2026-09-21T09:00:35.407696Z"}}